Pittsfield, MA

7:31 AM EST on February 26, 2017 (GMT -0500)
Pittsfield Municipal

Weather History for KPSF - May, 2014

Change the Weather History Date:

Thursday, May 29, 2014

  Actual Average Record
Temperature  
Mean Temperature 53 °F 59 °F  
Max Temperature 67 °F 70 °F 89 °F (2012)
Min Temperature 38 °F 47 °F 37 °F (1927)
Degree Days  
Heating Degree Days 12 7  
Month to date heating degree days 246 312  
Since 1 July heating degree days 7662 7347  
Cooling Degree Days 0 1  
Month to date cooling degree days 5 3  
Year to date cooling degree days 6 5  
Growing Degree Days 2 (Base 50)    
Moisture  
Dew Point 41 °F    
Average Humidity 70    
Maximum Humidity 100    
Minimum Humidity 40    
Precipitation  
Precipitation T in 0.16 in 1.75 in (1955)
Month to date precipitation 1.05 3.89  
Year to date precipitation 14.00 16.72  
Sea Level Pressure  
Sea Level Pressure 30.14 in    
Wind  
Wind Speed 4 mph (SE)    
Max Wind Speed 13 mph    
Max Gust Speed 16 mph    
Visibility 10 miles    
Events Rain    
T = Trace of Precipitation, MM = Missing Value Source: NWS Daily Summary

Daily Weather History Graph

Daily Weather History Graph

Search for Another Location

Airport or City:

Trip Planner

Search our weather history database for the weather conditions in past years. The results will help you decide how hot, cold, wet, or windy it might be!

Date:

Astronomy

May. 29, 2014 Rise Set
Actual Time 5:20 AM EDT 8:21 PM EDT
Civil Twilight 4:46 AM EDT 8:55 PM EDT
Nautical Twilight 4:03 AM EDT 9:38 PM EDT
Astronomical Twilight 3:13 AM EDT 10:29 PM EDT
Moon 6:12 AM EDT (5/29) 9:08 PM EDT (5/29)
Length of Visible Light 16h 08m
Length of Day
15h 01m
New Moon, 1% of the Moon is Illuminated
May 29
New Moon
Jun 5
First Quarter
Jun 13
Full
Jun 19
Last Quarter
Jun 27
New

Hourly Weather History & Observations

Time (EDT) Temp. Windchill Dew Point Humidity Pressure Visibility Wind Dir Wind Speed Gust Speed Precip Events Conditions
12:54 AM 46.9 °F - 44.1 °F 90% 30.18 in 10.0 mi Calm Calm - 0.00 in   Overcast
1:45 AM 46.0 °F 43.9 °F 41.0 °F 83% 30.18 in 10.0 mi East 4.6 mph - 0.00 in   Scattered Clouds
2:54 AM 44.1 °F 42.5 °F 41.0 °F 89% 30.17 in 10.0 mi ENE 3.5 mph - N/A   Clear
3:54 AM 39.9 °F - 39.0 °F 97% 30.17 in 10.0 mi Calm Calm - N/A   Clear
4:54 AM 39.0 °F - 37.9 °F 96% 30.18 in 9.0 mi Calm Calm - N/A   Clear
5:54 AM 39.9 °F - 37.9 °F 93% 30.19 in 10.0 mi Calm Calm - N/A   Clear
6:54 AM 44.1 °F - 41.0 °F 89% 30.19 in 10.0 mi Calm Calm - 0.00 in   Clear
7:54 AM 48.0 °F - 41.0 °F 77% 30.19 in 10.0 mi NE 4.6 mph - 0.00 in   Clear
8:54 AM 51.1 °F - 39.9 °F 66% 30.19 in 10.0 mi Variable 3.5 mph - 0.00 in   Clear
9:54 AM 55.0 °F - 39.0 °F 55% 30.19 in 10.0 mi Calm Calm - N/A   Clear
10:54 AM 57.9 °F - 39.9 °F 51% 30.17 in 10.0 mi NE 5.8 mph - N/A   Clear
11:54 AM 61.0 °F - 39.9 °F 46% 30.16 in 10.0 mi Variable 4.6 mph - N/A   Clear
12:54 PM 62.1 °F - 39.9 °F 44% 30.14 in 10.0 mi Variable 4.6 mph - 0.00 in Rain Light Rain
1:54 PM 64.0 °F - 39.9 °F 41% 30.13 in 10.0 mi ENE 5.8 mph - 0.00 in   Clear
2:54 PM 64.9 °F - 39.9 °F 40% 30.11 in 10.0 mi Calm Calm - 0.00 in   Clear
3:54 PM 66.0 °F - 41.0 °F 40% 30.11 in 10.0 mi SW 5.8 mph - N/A   Partly Cloudy
6:54 PM 63.0 °F - 42.1 °F 46% 30.07 in 10.0 mi SE 8.1 mph - N/A   Overcast
7:54 PM 61.0 °F - 43.0 °F 52% 30.08 in 10.0 mi SE 5.8 mph - N/A   Overcast
8:54 PM 60.1 °F - 43.0 °F 53% 30.07 in 10.0 mi South 6.9 mph - N/A   Overcast
9:54 PM 57.9 °F - 39.9 °F 51% 30.09 in 10.0 mi South 8.1 mph - N/A   Overcast
10:54 PM 55.9 °F - 41.0 °F 57% 30.09 in 10.0 mi South 6.9 mph - N/A   Overcast
11:54 PM 54.0 °F - 42.1 °F 64% 30.07 in 10.0 mi Variable 3.5 mph - N/A   Mostly Cloudy